Regional Weather Roundup
Issued by NWS

Home | Current Version | Previous Version | Text Only | Print | Product List | Glossary Off
Versions: 1 2 3 4 5 6 7 8 9 10 11 12 13 14 15 16 17 18 19 20 21 22 23 24 25 26 27 28 29 30 31 32 33 34 35 36 37 38 39 40 41 42 43 44 45 46 47 48 49 50

000
ASUS43 KLOT 232210
RWRIL

ILLINOIS REGIONAL WEATHER ROUNDUP
NATIONAL WEATHER SERVICE CHICAGO/ROMEOVILLE IL
500 PM CDT WED APR 23 2014

NOTE: "FAIR" INDICATES FEW OR NO CLOUDS BELOW 12,000 FEET WITH NO
SIGNIFICANT WEATHER AND/OR OBSTRUCTIONS TO VISIBILITY.

* THESE STATIONS ARE NOT UNDER NWS QUALITY CONTROL. THEY ALSO MAY NOT
  REPORT WEATHER SUCH AS PRECIPITATION OR FOG.

ILZ001-002-007-009-015-016-024-232300-
NORTHWEST ILLINOIS

CITY           SKY/WX    TMP DP  RH WIND       PRES   REMARKS
MOLINE         LGT RAIN  54  34  46 E12       30.05F
STERLING*      CLOUDY    55  30  38 SE9       30.08F
SAVANNA*       CLOUDY    55  28  35 SE10      30.07F
$$

ILZ003-004-008-010-011-017-018-232300-
NORTH CENTRAL ILLINOIS

CITY           SKY/WX    TMP DP  RH WIND       PRES   REMARKS
ROCKFORD       CLOUDY    55  25  31 E8        30.12S
FREEPORT*      CLOUDY    53  23  31 SE7       30.11F
ROCHELLE*      CLOUDY    55  24  30 E6        30.10S
DE KALB*       CLOUDY    52  24  34 E6        30.11S
PERU*          CLOUDY    56  31  37 CALM      30.09F
$$

ILZ005-006-012>014-019>023-232300-
NORTHEAST ILLINOIS

CITY           SKY/WX    TMP DP  RH WIND       PRES   REMARKS
CHICAGO-OHARE  CLOUDY    47  21  35 NE8       30.12S
CHICAGO-MIDWAY PTSUNNY   48  25  40 N10       30.13S
AURORA         PTSUNNY   55  26  32 E7        30.11S
LANSING*       SUNNY     46  27  47 N7        30.13R
JOLIET*        MOSUNNY   53  26  35 E9        30.11F
WAUKEGAN       PTSUNNY   42  20  41 N9        30.13S
DUPAGE AIRPORT PTSUNNY   51  25  36 NE9       30.11S
KANKAKEE*      MOSUNNY   56  32  39 NE8       30.10R
WHEELING       MOSUNNY   46  23  40 VRB6      30.15R
MORRIS*        MOSUNNY   56  20  24 E7        30.09S
ROMEOVILLE*    MOSUNNY   51  26  36 E9        30.11S
NORTHERLY ISL    N/A     42  29  60 N12         N/A
$$

LMZ740>746-232300-
SOUTHERN LAKE MICHIGAN

STATION/POSITION SKY/WX   TEMP    WIND        PRES    VSBY  WAVE
                          AIR SEA DIR/SP/G                  HT/PER
                          (F)     (DEG/KT/KT) (MB)    (MI)  (FT/S)
WAUKEGAN HARBOR            38      30/  9/ 10 1022.0F
HARRISON CRIB              38     360/ 10/ 11   N/A
BURNHAM HARBOR             42     350/  8/ 13   N/A
CALUMET HARBOR             40     340/ 11/ 13 1021.5R
MICHIGAN CITY              38     360/ 10/ 11   N/A
$$

ILZ025>027-034>036-040-047-049-050-058-095>099-232300-
WEST-CENTRAL ILLINOIS

CITY           SKY/WX    TMP DP  RH WIND       PRES   REMARKS
QUINCY         CLOUDY    60  33  36 E15       29.99F
GALESBURG*     LGT RAIN  52  40  64 E6        30.06F
MACOMB*        LGT RAIN  54  39  58 E12       30.05F
JACKSONVILLE*  LGT RAIN  60  32  34 E12       30.04F
PITTSFIELD*    DRIZZLE   59  38  45 E8        30.01F
$$

ILZ028>032-037-038-041>044-048-051>054-059>061-232300-
CENTRAL ILLINOIS

CITY           SKY/WX    TMP DP  RH WIND       PRES   REMARKS
PONTIAC        MOSUNNY   59  27  29 NE6       30.09R
BLOOMINGTON    MOSUNNY   59  24  26 E7        30.08S
DECATUR        MOSUNNY   61  26  26 E7        30.05S
PEORIA         LGT RAIN  61  26  26 E6        30.07S
LACON*         CLOUDY    58  29  32 E6        30.07F
LINCOLN*       CLOUDY    63  27  25 E7        30.05S
SPRINGFIELD    PTSUNNY   62  25  24 E7        30.05S
TAYLORVILLE    PTSUNNY   61  28  29 E6        30.05R
$$

ILZ033-039-045-046-055>057-062-063-232300-
EAST-CENTRAL ILLINOIS

CITY           SKY/WX    TMP DP  RH WIND       PRES   REMARKS
CHAMPAIGN      SUNNY     62  25  24 E7        30.06S
RANTOUL*       SUNNY     64  23  20 CALM      30.08R
MATTOON        MOSUNNY   60  26  27 E5        30.04F
PARIS*         SUNNY     62  32  31 NE5       30.06F
$$

ILZ079-100>102-232300-
SOUTHWEST ILLINOIS

CITY           SKY/WX    TMP DP  RH WIND       PRES   REMARKS
ALTON          CLOUDY    61  28  29 SE9       30.02F
BELLEVILLE     MOSUNNY   63  37  39 SE9       30.01F
CAHOKIA*       PTSUNNY   63  37  38 E8        30.01F
SPARTA*        MOSUNNY   63  36  36 SE7       30.02F
$$

ILZ064>066-069>071-074>076-080>082-084>086-088>090-092>094-232300-
SOUTH-CENTRAL ILLINOIS

CITY           SKY/WX    TMP DP  RH WIND       PRES   REMARKS
CARBONDALE     SUNNY     66  36  32 VRB7      30.01F
CAIRO*         SUNNY     72  35  25 NE5       30.00F
MARION         PTSUNNY   66  34  30 SE14      30.03F
MT. VERNON     SUNNY    N/A N/A N/A NE9       30.03F
CENTRALIA*     SUNNY     65  30  27 NE7       30.02F
SALEM*         SUNNY     65  34  30 E8        30.03F
METROPOLIS*    SUNNY     68  28  21 E7        30.00S
$$

ILZ067-068-072-073-078-083-087-091-232300-
SOUTHEAST ILLINOIS

CITY           SKY/WX    TMP DP  RH WIND       PRES   REMARKS
FLORA*         SUNNY     62  30  30 E6        30.04F
FAIRFIELD*     SUNNY     64  36  34 CALM      30.03F
HARRISBURG*    SUNNY     65  30  27 NE8       30.04S
ROBINSON*      SUNNY     64  35  34 N5        30.06S
CARMI*         SUNNY     65  33  30 NE6       30.03S
$$

ABBREVIATIONS USED IN REMARKS
   TC - TEMPERATURE IN CELSIUS
  WCI - WIND CHILL INDEX
   HX - HEAT INDEX
  VSB - VISIBILITY
$$




USA.gov is the U.S. government's official web portal to all federal, state and local government web resources and services.